Regional Weather Roundup
Issued by NWS

Home | Current Version | Previous Version | Text Only | Print | Product List | Glossary Off
Versions: 1 2 3 4 5 6 7 8 9 10 11 12 13 14 15 16 17 18 19 20 21 22 23 24 25 26 27 28 29 30 31 32 33 34 35 36 37 38 39 40 41 42 43 44 45 46 47 48 49 50

000
ASUS45 KBOI 282210
RWRID

IDAHO REGIONAL WEATHER ROUNDUP
NATIONAL WEATHER SERVICE BOISE ID
400 PM MDT SAT MAY 28 2016

NOTE: "FAIR" INDICATES FEW OR NO CLOUDS BELOW 12000 FEET
WITH NO SIGNIFICANT WEATHER AND/OR OBSTRUCTIONS TO VISIBILITY

IDZ012-014-282300-
SOUTHWEST IDAHO


CITY           SKY/WX    TMP DP  RH WIND       PRES   REMARKS
BOISE          SUNNY     67  29  24 NW8       30.04F
CALDWELL       SUNNY     70  33  25 N8        30.04F
MOUNTAIN HOME  SUNNY     72  38  28 NW10G17   30.03F
$$

IDZ016-017-282300-
SOUTHCENTRAL IDAHO


CITY           SKY/WX    TMP DP  RH WIND       PRES   REMARKS
BURLEY         SUNNY     64  30  27 W8        30.05F
JEROME         SUNNY     65  26  23 W9G20     30.06F
TWIN FALLS     SUNNY     66  29  24 W13       30.06F
$$

IDZ019>023-282300-
SOUTHEAST IDAHO


CITY           SKY/WX    TMP DP  RH WIND       PRES   REMARKS
IDAHO FALLS    MOSUNNY   65  29  25 SW17G25   30.06S
POCATELLO      MOSUNNY   67  27  22 W15G25    30.07F
REXBURG        SUNNY     64  26  23 SW14G29   30.06S
$$

IDZ006-010-011-018-031-032-282300-
CENTRAL IDAHO MOUNTAINS


CITY           SKY/WX    TMP DP  RH WIND       PRES   REMARKS
MCCALL         SUNNY     57  30  35 MISG      30.07S
HAILEY         MOSUNNY   63  32  31 S9        30.07R
STANLEY          N/A     59  22  24 W9        30.09R
SALMON         CLOUDY    63  36  36 N8        29.99R
CHALLIS        SUNNY     67  23  19 E6        29.99S
$$

IDZ002-004-006-007-026-282300-
NORTHERN IDAHO


CITY           SKY/WX    TMP DP  RH WIND       PRES   REMARKS
LEWISTON       SUNNY     69  37  30 VRB3      30.04S
LOWELL           N/A     70  34  26 VRB6      30.02S
COEUR D`ALENE  PTSUNNY   61  36  39 SW7       30.03F
MULLAN PASS    CLOUDY    43  29  57 MISG      30.09R
$$



USA.gov is the U.S. government's official web portal to all federal, state and local government web resources and services.